ECMWFFLT2_prec_pwat_003.txt.gz
Precipitable_Water
0.59 0.58 0.58 0.58 0.58 0.58 0.59 0.60 0.61 0.63 0.63 0.63 0.62 0.62 0.62 0.61 0.59 0.55 0.53 0.50 0.52 0.52 0.52 0.49 0.46 0.47 0.49 0.49 0.49 0.50 0.49 0.48 0.46 0.44 0.44 0.43 0.43 0.42 0.44 0.42 0.39 0.39 0.38 0.36 0.33 0.30 0.28 0.26 0.23 0.19 0.16 0.15
0.59 0.59 0.58 0.58 0.58 0.59 0.60 0.61 0.61 0.62 0.63 0.62 0.62 0.62 0.62 0.60 0.59 0.56 0.53 0.52 0.53 0.54 0.53 0.52 0.49 0.48 0.49 0.49 0.50 0.50 0.49 0.48 0.46 0.44 0.43 0.43 0.42 0.42 0.41 0.38 0.38 0.36 0.35 0.34 0.31 0.27 0.25 0.23 0.21 0.18 0.15 0.14
0.61 0.59 0.59 0.59 0.58 0.59 0.61 0.62 0.60 0.61 0.63 0.63 0.62 0.61 0.60 0.59 0.58 0.55 0.52 0.51 0.52 0.53 0.54 0.53 0.51 0.49 0.50 0.50 0.49 0.49 0.50 0.48 0.45 0.43 0.43 0.42 0.40 0.41 0.39 0.37 0.34 0.34 0.33 0.31 0.29 0.26 0.23 0.21 0.19 0.17 0.15 0.14
0.60 0.60 0.60 0.59 0.58 0.59 0.60 0.61 0.61 0.61 0.63 0.63 0.61 0.59 0.59 0.57 0.56 0.53 0.51 0.50 0.49 0.51 0.53 0.54 0.51 0.49 0.49 0.50 0.50 0.50 0.50 0.49 0.46 0.44 0.43 0.43 0.41 0.40 0.39 0.34 0.33 0.32 0.31 0.30 0.28 0.25 0.23 0.19 0.16 0.15 0.14 0.14
0.59 0.59 0.60 0.59 0.59 0.58 0.59 0.60 0.60 0.60 0.60 0.61 0.60 0.59 0.58 0.56 0.54 0.52 0.50 0.48 0.48 0.48 0.50 0.53 0.51 0.47 0.48 0.50 0.50 0.51 0.50 0.50 0.49 0.46 0.43 0.43 0.42 0.40 0.37 0.32 0.30 0.30 0.30 0.29 0.27 0.24 0.21 0.18 0.16 0.15 0.15 0.14
0.58 0.58 0.59 0.59 0.59 0.59 0.59 0.59 0.58 0.58 0.58 0.58 0.58 0.58 0.57 0.55 0.52 0.50 0.49 0.48 0.48 0.46 0.46 0.50 0.50 0.46 0.45 0.48 0.50 0.50 0.50 0.50 0.50 0.48 0.45 0.43 0.42 0.41 0.33 0.30 0.28 0.28 0.28 0.27 0.25 0.22 0.19 0.16 0.16 0.15 0.15 0.14
0.55 0.56 0.57 0.57 0.58 0.58 0.58 0.57 0.56 0.55 0.55 0.55 0.55 0.56 0.56 0.54 0.53 0.51 0.49 0.48 0.47 0.46 0.45 0.45 0.46 0.45 0.43 0.43 0.48 0.50 0.49 0.50 0.50 0.50 0.47 0.45 0.43 0.41 0.31 0.26 0.24 0.23 0.23 0.24 0.23 0.20 0.18 0.17 0.16 0.16 0.15 0.15
0.53 0.54 0.55 0.56 0.56 0.56 0.56 0.55 0.54 0.54 0.54 0.52 0.53 0.54 0.54 0.53 0.52 0.51 0.49 0.48 0.47 0.47 0.46 0.44 0.43 0.43 0.42 0.41 0.45 0.50 0.50 0.49 0.50 0.50 0.49 0.47 0.44 0.37 0.30 0.26 0.24 0.22 0.20 0.19 0.18 0.17 0.17 0.16 0.16 0.16 0.15 0.15
0.50 0.52 0.54 0.54 0.55 0.54 0.53 0.53 0.52 0.52 0.52 0.51 0.50 0.51 0.52 0.52 0.51 0.50 0.49 0.48 0.47 0.46 0.45 0.43 0.42 0.42 0.41 0.40 0.40 0.46 0.46 0.45 0.46 0.46 0.44 0.43 0.39 0.34 0.29 0.26 0.23 0.22 0.19 0.18 0.18 0.17 0.17 0.16 0.16 0.16 0.16 0.15
0.50 0.51 0.51 0.51 0.53 0.53 0.52 0.51 0.50 0.50 0.49 0.49 0.49 0.49 0.49 0.50 0.49 0.49 0.48 0.48 0.47 0.45 0.45 0.42 0.41 0.40 0.39 0.38 0.38 0.41 0.42 0.41 0.40 0.40 0.39 0.38 0.36 0.32 0.29 0.25 0.23 0.21 0.19 0.18 0.17 0.17 0.17 0.17 0.16 0.16 0.15 0.15
0.51 0.50 0.51 0.52 0.52 0.51 0.50 0.51 0.49 0.47 0.47 0.47 0.48 0.47 0.48 0.47 0.47 0.47 0.47 0.46 0.46 0.45 0.44 0.42 0.40 0.39 0.39 0.37 0.36 0.38 0.39 0.38 0.37 0.36 0.36 0.35 0.34 0.31 0.28 0.25 0.23 0.21 0.19 0.19 0.18 0.17 0.17 0.17 0.16 0.16 0.15 0.14
0.50 0.51 0.51 0.51 0.51 0.51 0.50 0.50 0.48 0.47 0.47 0.47 0.47 0.47 0.46 0.47 0.46 0.46 0.45 0.46 0.45 0.45 0.44 0.43 0.41 0.39 0.38 0.37 0.36 0.36 0.36 0.35 0.34 0.33 0.33 0.32 0.31 0.29 0.27 0.25 0.23 0.21 0.20 0.19 0.18 0.17 0.17 0.17 0.16 0.16 0.15 0.15
0.51 0.52 0.52 0.51 0.49 0.49 0.50 0.49 0.48 0.48 0.48 0.46 0.46 0.46 0.46 0.46 0.45 0.45 0.45 0.45 0.45 0.45 0.44 0.43 0.41 0.39 0.37 0.36 0.35 0.34 0.33 0.33 0.31 0.31 0.30 0.29 0.27 0.26 0.25 0.24 0.23 0.23 0.22 0.21 0.19 0.18 0.17 0.17 0.17 0.16 0.16 0.15
0.52 0.51 0.51 0.51 0.50 0.49 0.50 0.49 0.49 0.50 0.48 0.47 0.46 0.45 0.45 0.46 0.45 0.44 0.44 0.45 0.45 0.43 0.43 0.43 0.42 0.40 0.37 0.36 0.35 0.33 0.31 0.31 0.30 0.29 0.27 0.26 0.24 0.23 0.23 0.23 0.23 0.23 0.22 0.21 0.21 0.19 0.18 0.17 0.17 0.17 0.16 0.15
0.52 0.52 0.51 0.51 0.52 0.52 0.50 0.50 0.50 0.49 0.49 0.48 0.47 0.46 0.46 0.46 0.46 0.45 0.44 0.44 0.43 0.43 0.42 0.42 0.41 0.40 0.38 0.35 0.34 0.33 0.31 0.31 0.29 0.27 0.26 0.25 0.24 0.23 0.23 0.23 0.23 0.22 0.20 0.20 0.20 0.20 0.20 0.18 0.17 0.17 0.17 0.16
0.52 0.52 0.52 0.53 0.53 0.52 0.52 0.53 0.51 0.49 0.48 0.48 0.49 0.49 0.48 0.47 0.47 0.45 0.44 0.43 0.43 0.42 0.41 0.41 0.40 0.40 0.37 0.36 0.35 0.34 0.32 0.31 0.29 0.28 0.27 0.26 0.26 0.26 0.25 0.24 0.24 0.23 0.21 0.20 0.19 0.19 0.19 0.19 0.19 0.18 0.17 0.16
0.53 0.54 0.54 0.54 0.54 0.54 0.55 0.55 0.53 0.51 0.50 0.49 0.50 0.50 0.49 0.48 0.48 0.47 0.44 0.44 0.43 0.42 0.42 0.41 0.40 0.39 0.38 0.37 0.36 0.34 0.33 0.31 0.30 0.29 0.29 0.28 0.28 0.27 0.27 0.25 0.24 0.24 0.22 0.20 0.20 0.19 0.19 0.18 0.18 0.18 0.18 0.17
0.51 0.52 0.54 0.55 0.56 0.56 0.56 0.55 0.54 0.53 0.53 0.52 0.52 0.51 0.50 0.49 0.48 0.47 0.47 0.45 0.44 0.43 0.42 0.41 0.40 0.39 0.38 0.38 0.37 0.35 0.34 0.32 0.31 0.30 0.29 0.29 0.28 0.28 0.28 0.27 0.26 0.25 0.23 0.22 0.21 0.20 0.20 0.19 0.18 0.18 0.18 0.17
0.49 0.51 0.52 0.53 0.54 0.55 0.55 0.55 0.54 0.54 0.54 0.54 0.53 0.53 0.51 0.50 0.49 0.48 0.48 0.47 0.45 0.44 0.43 0.41 0.40 0.40 0.40 0.39 0.38 0.36 0.35 0.33 0.31 0.30 0.29 0.29 0.28 0.28 0.28 0.28 0.28 0.27 0.25 0.23 0.22 0.22 0.21 0.20 0.20 0.19 0.18 0.17
0.50 0.50 0.51 0.52 0.53 0.53 0.54 0.54 0.54 0.54 0.54 0.55 0.55 0.53 0.51 0.51 0.50 0.50 0.50 0.49 0.48 0.45 0.44 0.43 0.41 0.42 0.42 0.41 0.40 0.37 0.36 0.34 0.32 0.31 0.30 0.30 0.29 0.27 0.28 0.28 0.28 0.28 0.26 0.25 0.24 0.23 0.23 0.23 0.22 0.20 0.19 0.18
0.50 0.50 0.51 0.51 0.52 0.52 0.52 0.53 0.53 0.54 0.55 0.55 0.54 0.54 0.53 0.53 0.52 0.52 0.51 0.51 0.49 0.47 0.45 0.44 0.43 0.43 0.43 0.43 0.40 0.39 0.37 0.35 0.33 0.31 0.30 0.30 0.30 0.29 0.27 0.28 0.28 0.29 0.28 0.26 0.25 0.25 0.24 0.24 0.23 0.22 0.21 0.19
0.50 0.51 0.51 0.51 0.51 0.52 0.52 0.52 0.53 0.53 0.52 0.52 0.52 0.52 0.52 0.52 0.52 0.52 0.51 0.51 0.49 0.48 0.46 0.45 0.44 0.43 0.43 0.42 0.41 0.39 0.38 0.36 0.35 0.33 0.31 0.30 0.30 0.30 0.29 0.28 0.29 0.29 0.28 0.27 0.26 0.26 0.25 0.24 0.23 0.23 0.22 0.21
0.49 0.50 0.50 0.51 0.51 0.51 0.51 0.52 0.52 0.52 0.50 0.50 0.50 0.50 0.49 0.49 0.49 0.49 0.49 0.49 0.49 0.47 0.46 0.45 0.44 0.43 0.42 0.42 0.41 0.39 0.38 0.36 0.35 0.34 0.33 0.32 0.31 0.31 0.30 0.29 0.29 0.29 0.29 0.28 0.27 0.26 0.26 0.25 0.24 0.23 0.23 0.22
0.47 0.47 0.48 0.48 0.49 0.49 0.50 0.50 0.49 0.49 0.48 0.49 0.48 0.48 0.48 0.47 0.47 0.47 0.47 0.47 0.47 0.46 0.45 0.44 0.44 0.43 0.42 0.42 0.41 0.39 0.37 0.36 0.36 0.35 0.34 0.33 0.32 0.32 0.31 0.31 0.31 0.31 0.31 0.31 0.29 0.28 0.28 0.27 0.25 0.24 0.23 0.22
0.51 0.50 0.49 0.49 0.48 0.48 0.49 0.49 0.49 0.49 0.50 0.49 0.48 0.47 0.46 0.46 0.45 0.45 0.44 0.44 0.44 0.44 0.44 0.43 0.43 0.42 0.41 0.41 0.40 0.39 0.38 0.38 0.37 0.37 0.35 0.34 0.33 0.31 0.30 0.30 0.31 0.31 0.32 0.30 0.29 0.29 0.28 0.28 0.26 0.25 0.24 0.23
0.51 0.53 0.53 0.53 0.52 0.53 0.53 0.52 0.52 0.51 0.51 0.50 0.49 0.47 0.45 0.44 0.44 0.43 0.42 0.42 0.42 0.42 0.41 0.41 0.41 0.40 0.40 0.40 0.39 0.39 0.39 0.38 0.37 0.36 0.35 0.34 0.33 0.33 0.31 0.30 0.30 0.30 0.30 0.28 0.28 0.27 0.26 0.26 0.27 0.26 0.26 0.24
0.45 0.47 0.49 0.50 0.49 0.50 0.51 0.52 0.52 0.50 0.49 0.49 0.47 0.45 0.44 0.42 0.42 0.41 0.40 0.40 0.40 0.40 0.41 0.41 0.41 0.40 0.39 0.39 0.38 0.38 0.36 0.36 0.35 0.35 0.35 0.34 0.33 0.32 0.32 0.30 0.31 0.30 0.30 0.27 0.28 0.27 0.24 0.23 0.24 0.27 0.26 0.25
0.45 0.45 0.46 0.45 0.45 0.47 0.47 0.45 0.47 0.47 0.46 0.44 0.43 0.41 0.40 0.40 0.39 0.39 0.38 0.38 0.38 0.38 0.39 0.39 0.40 0.40 0.39 0.38 0.39 0.38 0.37 0.35 0.35 0.35 0.34 0.34 0.33 0.32 0.30 0.29 0.29 0.31 0.30 0.28 0.27 0.24 0.24 0.24 0.25 0.24 0.24 0.24
0.43 0.43 0.42 0.42 0.43 0.43 0.43 0.45 0.43 0.42 0.41 0.40 0.39 0.39 0.39 0.39 0.40 0.39 0.38 0.38 0.37 0.37 0.38 0.39 0.39 0.39 0.38 0.38 0.38 0.38 0.36 0.35 0.35 0.36 0.36 0.36 0.34 0.33 0.31 0.30 0.30 0.30 0.30 0.29 0.29 0.25 0.25 0.24 0.24 0.24 0.26 0.25
0.41 0.41 0.40 0.39 0.38 0.37 0.37 0.36 0.37 0.37 0.36 0.36 0.36 0.35 0.38 0.39 0.40 0.39 0.38 0.38 0.38 0.38 0.38 0.38 0.39 0.39 0.38 0.37 0.37 0.37 0.36 0.36 0.36 0.35 0.35 0.35 0.35 0.34 0.33 0.31 0.30 0.28 0.30 0.29 0.29 0.28 0.27 0.26 0.25 0.24 0.25 0.25
0.40 0.39 0.40 0.40 0.39 0.38 0.37 0.36 0.36 0.38 0.38 0.38 0.38 0.38 0.36 0.37 0.39 0.39 0.38 0.39 0.39 0.39 0.39 0.39 0.39 0.39 0.39 0.38 0.37 0.37 0.37 0.35 0.35 0.36 0.36 0.37 0.35 0.34 0.34 0.32 0.29 0.28 0.28 0.30 0.29 0.29 0.29 0.28 0.27 0.25 0.24 0.24

ECMWFFLT2_prec_pwat_006.txt.gz
Precipitable_Water
0.60 0.60 0.67 0.68 0.66 0.65 0.65 0.65 0.63 0.65 0.64 0.65 0.66 0.66 0.63 0.62 0.62 0.59 0.58 0.57 0.56 0.55 0.55 0.53 0.47 0.50 0.53 0.55 0.56 0.55 0.56 0.53 0.53 0.52 0.51 0.51 0.51 0.51 0.49 0.54 0.49 0.48 0.45 0.44 0.43 0.40 0.34 0.27 0.23 0.19 0.17 0.17
0.60 0.60 0.65 0.68 0.66 0.66 0.65 0.65 0.65 0.66 0.65 0.65 0.65 0.66 0.64 0.62 0.62 0.61 0.59 0.56 0.57 0.56 0.56 0.55 0.51 0.49 0.52 0.53 0.54 0.53 0.55 0.54 0.53 0.53 0.51 0.51 0.50 0.49 0.48 0.49 0.44 0.43 0.42 0.41 0.40 0.37 0.33 0.27 0.22 0.18 0.17 0.17
0.60 0.60 0.63 0.66 0.66 0.66 0.65 0.64 0.64 0.66 0.67 0.66 0.65 0.65 0.63 0.63 0.63 0.61 0.60 0.57 0.55 0.56 0.56 0.56 0.54 0.52 0.52 0.53 0.55 0.54 0.53 0.53 0.53 0.53 0.52 0.51 0.49 0.48 0.47 0.46 0.44 0.42 0.41 0.41 0.37 0.35 0.31 0.26 0.21 0.18 0.17 0.16
0.62 0.60 0.62 0.64 0.64 0.65 0.66 0.64 0.64 0.66 0.67 0.67 0.65 0.64 0.63 0.63 0.63 0.60 0.59 0.56 0.53 0.55 0.55 0.56 0.55 0.54 0.55 0.54 0.55 0.55 0.55 0.54 0.53 0.52 0.52 0.51 0.49 0.49 0.47 0.44 0.44 0.42 0.42 0.40 0.37 0.33 0.27 0.23 0.19 0.17 0.17 0.16
0.60 0.63 0.61 0.63 0.64 0.64 0.65 0.64 0.64 0.64 0.67 0.68 0.66 0.64 0.62 0.61 0.60 0.60 0.58 0.55 0.52 0.54 0.55 0.55 0.54 0.54 0.54 0.54 0.56 0.56 0.56 0.56 0.55 0.53 0.53 0.51 0.49 0.48 0.47 0.43 0.43 0.41 0.41 0.39 0.36 0.30 0.25 0.20 0.18 0.18 0.17 0.16
0.58 0.63 0.63 0.64 0.65 0.64 0.65 0.65 0.64 0.64 0.65 0.67 0.68 0.65 0.62 0.60 0.60 0.59 0.58 0.55 0.52 0.53 0.53 0.55 0.54 0.52 0.53 0.54 0.54 0.55 0.55 0.56 0.56 0.55 0.53 0.52 0.51 0.49 0.46 0.44 0.42 0.40 0.39 0.37 0.32 0.27 0.22 0.19 0.19 0.18 0.18 0.16
0.57 0.60 0.62 0.65 0.67 0.67 0.66 0.66 0.65 0.65 0.65 0.66 0.66 0.67 0.63 0.61 0.60 0.59 0.57 0.55 0.53 0.52 0.52 0.54 0.53 0.51 0.50 0.53 0.54 0.54 0.55 0.56 0.56 0.56 0.55 0.54 0.52 0.51 0.47 0.43 0.38 0.38 0.36 0.33 0.29 0.25 0.21 0.19 0.19 0.18 0.17 0.17
0.57 0.60 0.63 0.64 0.65 0.68 0.67 0.67 0.66 0.65 0.64 0.65 0.66 0.66 0.66 0.62 0.61 0.58 0.57 0.55 0.53 0.50 0.49 0.51 0.52 0.51 0.49 0.50 0.52 0.54 0.53 0.53 0.54 0.56 0.56 0.55 0.53 0.52 0.44 0.39 0.33 0.32 0.31 0.31 0.28 0.22 0.19 0.19 0.19 0.18 0.18 0.17
0.55 0.59 0.62 0.65 0.64 0.66 0.68 0.67 0.66 0.64 0.64 0.63 0.63 0.65 0.64 0.63 0.60 0.57 0.56 0.54 0.52 0.51 0.50 0.51 0.51 0.51 0.49 0.48 0.49 0.50 0.52 0.52 0.51 0.53 0.53 0.53 0.53 0.49 0.44 0.37 0.31 0.28 0.26 0.25 0.22 0.20 0.19 0.19 0.19 0.18 0.18 0.16
0.56 0.58 0.58 0.60 0.63 0.63 0.65 0.65 0.63 0.62 0.60 0.59 0.59 0.60 0.61 0.60 0.58 0.57 0.55 0.53 0.53 0.52 0.53 0.51 0.50 0.50 0.49 0.48 0.48 0.46 0.48 0.49 0.50 0.49 0.50 0.49 0.47 0.45 0.42 0.38 0.32 0.29 0.26 0.23 0.21 0.20 0.19 0.19 0.18 0.18 0.17 0.16
0.57 0.56 0.57 0.60 0.62 0.61 0.61 0.62 0.61 0.59 0.58 0.57 0.58 0.58 0.59 0.56 0.56 0.56 0.55 0.54 0.53 0.52 0.52 0.50 0.50 0.49 0.49 0.47 0.43 0.42 0.45 0.45 0.46 0.46 0.45 0.45 0.43 0.42 0.39 0.36 0.33 0.30 0.27 0.24 0.21 0.20 0.19 0.19 0.18 0.18 0.17 0.17
0.57 0.59 0.59 0.59 0.60 0.61 0.61 0.61 0.60 0.59 0.58 0.59 0.58 0.57 0.57 0.56 0.56 0.55 0.53 0.53 0.53 0.52 0.51 0.50 0.50 0.49 0.47 0.45 0.42 0.41 0.43 0.42 0.43 0.44 0.44 0.43 0.41 0.39 0.37 0.35 0.33 0.30 0.27 0.25 0.23 0.21 0.19 0.19 0.18 0.18 0.17 0.17
0.55 0.57 0.60 0.60 0.60 0.59 0.60 0.61 0.61 0.61 0.61 0.59 0.58 0.58 0.57 0.56 0.55 0.54 0.53 0.52 0.52 0.52 0.50 0.51 0.50 0.48 0.46 0.45 0.43 0.41 0.41 0.41 0.41 0.41 0.41 0.40 0.39 0.38 0.36 0.33 0.31 0.29 0.27 0.25 0.23 0.22 0.21 0.20 0.19 0.18 0.17 0.17
0.52 0.54 0.56 0.59 0.61 0.61 0.61 0.60 0.62 0.62 0.61 0.60 0.59 0.57 0.57 0.56 0.55 0.53 0.52 0.51 0.52 0.51 0.50 0.50 0.49 0.48 0.46 0.44 0.43 0.41 0.39 0.40 0.40 0.39 0.39 0.38 0.37 0.36 0.34 0.31 0.29 0.27 0.25 0.23 0.22 0.21 0.21 0.20 0.20 0.20 0.19 0.18
0.51 0.53 0.53 0.55 0.59 0.61 0.61 0.63 0.64 0.62 0.62 0.61 0.60 0.58 0.57 0.57 0.56 0.54 0.53 0.51 0.50 0.50 0.50 0.50 0.48 0.47 0.47 0.44 0.43 0.42 0.40 0.40 0.39 0.38 0.37 0.36 0.34 0.33 0.32 0.30 0.29 0.27 0.24 0.23 0.22 0.21 0.20 0.19 0.19 0.19 0.19 0.19
0.51 0.52 0.53 0.54 0.56 0.57 0.60 0.62 0.62 0.62 0.61 0.60 0.60 0.60 0.59 0.57 0.56 0.55 0.53 0.52 0.51 0.50 0.50 0.49 0.48 0.47 0.46 0.45 0.44 0.43 0.40 0.38 0.38 0.37 0.36 0.34 0.33 0.32 0.30 0.29 0.28 0.28 0.25 0.24 0.22 0.22 0.20 0.20 0.19 0.19 0.19 0.18
0.51 0.53 0.54 0.55 0.55 0.56 0.58 0.59 0.60 0.59 0.59 0.59 0.59 0.60 0.60 0.59 0.57 0.56 0.54 0.53 0.52 0.51 0.51 0.50 0.48 0.47 0.46 0.46 0.45 0.44 0.42 0.39 0.37 0.35 0.34 0.33 0.33 0.31 0.30 0.29 0.28 0.29 0.27 0.25 0.25 0.24 0.22 0.21 0.20 0.20 0.19 0.19
0.52 0.53 0.53 0.55 0.56 0.56 0.57 0.57 0.57 0.58 0.59 0.59 0.58 0.58 0.58 0.58 0.58 0.57 0.56 0.54 0.53 0.52 0.51 0.50 0.48 0.48 0.47 0.47 0.46 0.45 0.43 0.39 0.37 0.35 0.33 0.32 0.32 0.31 0.30 0.29 0.29 0.29 0.27 0.27 0.26 0.25 0.24 0.23 0.22 0.22 0.21 0.20
0.52 0.53 0.54 0.54 0.55 0.56 0.57 0.57 0.57 0.57 0.58 0.58 0.58 0.58 0.57 0.57 0.56 0.56 0.56 0.55 0.53 0.52 0.51 0.49 0.48 0.48 0.48 0.48 0.47 0.45 0.43 0.40 0.38 0.36 0.34 0.33 0.31 0.31 0.31 0.30 0.29 0.29 0.28 0.27 0.27 0.26 0.25 0.24 0.23 0.23 0.22 0.21
0.51 0.52 0.53 0.54 0.55 0.56 0.57 0.57 0.57 0.57 0.58 0.59 0.59 0.58 0.57 0.58 0.58 0.57 0.56 0.55 0.55 0.52 0.51 0.49 0.47 0.47 0.48 0.48 0.47 0.45 0.43 0.41 0.38 0.37 0.36 0.35 0.33 0.31 0.31 0.30 0.30 0.30 0.28 0.28 0.28 0.28 0.27 0.25 0.25 0.24 0.23 0.22
0.51 0.51 0.52 0.52 0.54 0.55 0.56 0.57 0.57 0.57 0.58 0.59 0.59 0.59 0.58 0.58 0.58 0.57 0.57 0.57 0.56 0.54 0.52 0.50 0.48 0.47 0.47 0.47 0.46 0.44 0.42 0.41 0.39 0.37 0.36 0.36 0.35 0.34 0.32 0.31 0.30 0.30 0.29 0.28 0.28 0.28 0.27 0.27 0.26 0.24 0.24 0.23
0.50 0.50 0.51 0.51 0.52 0.53 0.54 0.55 0.56 0.57 0.57 0.57 0.58 0.58 0.58 0.58 0.58 0.57 0.57 0.57 0.57 0.56 0.54 0.53 0.50 0.49 0.48 0.47 0.45 0.43 0.42 0.40 0.39 0.37 0.36 0.35 0.36 0.35 0.33 0.32 0.31 0.30 0.30 0.29 0.29 0.28 0.28 0.28 0.27 0.26 0.25 0.24
0.45 0.48 0.49 0.50 0.50 0.51 0.52 0.53 0.55 0.56 0.55 0.55 0.56 0.56 0.57 0.58 0.57 0.56 0.56 0.56 0.57 0.55 0.54 0.53 0.52 0.50 0.49 0.49 0.46 0.44 0.41 0.39 0.38 0.37 0.36 0.35 0.35 0.35 0.34 0.33 0.32 0.31 0.31 0.30 0.29 0.28 0.28 0.28 0.28 0.28 0.27 0.26
0.43 0.45 0.45 0.47 0.48 0.48 0.49 0.50 0.52 0.53 0.54 0.55 0.55 0.55 0.55 0.55 0.56 0.55 0.55 0.56 0.56 0.55 0.54 0.53 0.51 0.51 0.50 0.49 0.47 0.44 0.42 0.39 0.37 0.35 0.35 0.34 0.34 0.34 0.34 0.33 0.31 0.31 0.30 0.29 0.29 0.28 0.28 0.28 0.29 0.29 0.28 0.27
0.38 0.40 0.43 0.45 0.46 0.46 0.48 0.48 0.49 0.50 0.52 0.53 0.53 0.54 0.55 0.54 0.54 0.54 0.55 0.55 0.56 0.55 0.54 0.52 0.51 0.50 0.49 0.48 0.47 0.44 0.41 0.40 0.37 0.36 0.36 0.35 0.35 0.34 0.32 0.31 0.32 0.31 0.30 0.28 0.27 0.27 0.27 0.28 0.28 0.29 0.28 0.27
0.34 0.37 0.39 0.41 0.44 0.48 0.49 0.48 0.48 0.48 0.51 0.52 0.53 0.54 0.54 0.54 0.55 0.54 0.54 0.55 0.55 0.55 0.53 0.51 0.50 0.49 0.47 0.46 0.45 0.43 0.42 0.40 0.39 0.37 0.35 0.34 0.33 0.34 0.32 0.31 0.32 0.31 0.29 0.26 0.24 0.25 0.25 0.26 0.27 0.28 0.28 0.28
0.35 0.35 0.36 0.38 0.39 0.42 0.46 0.50 0.51 0.51 0.51 0.53 0.53 0.54 0.55 0.56 0.55 0.56 0.57 0.56 0.55 0.54 0.53 0.51 0.49 0.47 0.47 0.45 0.44 0.42 0.41 0.39 0.38 0.37 0.36 0.34 0.33 0.32 0.32 0.31 0.31 0.30 0.29 0.26 0.26 0.24 0.22 0.21 0.22 0.25 0.26 0.27
0.35 0.37 0.38 0.39 0.40 0.41 0.42 0.44 0.50 0.52 0.54 0.54 0.55 0.55 0.56 0.57 0.58 0.57 0.56 0.56 0.56 0.55 0.54 0.52 0.49 0.47 0.46 0.44 0.43 0.42 0.39 0.38 0.37 0.37 0.35 0.34 0.33 0.32 0.30 0.29 0.29 0.31 0.30 0.28 0.26 0.21 0.21 0.21 0.21 0.19 0.21 0.24
0.34 0.35 0.36 0.38 0.38 0.40 0.41 0.41 0.42 0.43 0.45 0.48 0.51 0.53 0.54 0.55 0.56 0.56 0.56 0.56 0.57 0.56 0.55 0.53 0.51 0.48 0.46 0.43 0.42 0.41 0.39 0.37 0.36 0.36 0.36 0.36 0.35 0.33 0.31 0.30 0.29 0.31 0.31 0.29 0.28 0.26 0.24 0.21 0.20 0.19 0.20 0.22
0.35 0.35 0.34 0.34 0.34 0.33 0.35 0.37 0.38 0.38 0.39 0.41 0.43 0.46 0.50 0.53 0.54 0.54 0.54 0.54 0.54 0.57 0.56 0.53 0.52 0.49 0.46 0.43 0.41 0.40 0.38 0.37 0.36 0.35 0.35 0.36 0.35 0.34 0.34 0.32 0.30 0.29 0.30 0.29 0.28 0.28 0.27 0.26 0.23 0.22 0.22 0.22
0.33 0.34 0.34 0.34 0.34 0.34 0.35 0.35 0.37 0.41 0.43 0.42 0.43 0.45 0.45 0.47 0.50 0.51 0.50 0.50 0.50 0.51 0.53 0.52 0.51 0.49 0.46 0.43 0.41 0.40 0.39 0.37 0.35 0.35 0.36 0.37 0.36 0.35 0.35 0.33 0.30 0.29 0.29 0.30 0.29 0.28 0.27 0.26 0.27 0.26 0.23 0.21

ECMWFFLT2_prec_pwat_009.txt.gz
Precipitable_Water
0.73 0.68 0.68 0.68 0.63 0.64 0.68 0.70 0.69 0.70 0.71 0.71 0.73 0.72 0.72 0.71 0.69 0.67 0.67 0.66 0.63 0.61 0.60 0.56 0.52 0.52 0.54 0.54 0.56 0.57 0.61 0.63 0.63 0.62 0.62 0.61 0.62 0.62 0.60 0.60 0.62 0.61 0.55 0.48 0.45 0.42 0.36 0.30 0.24 0.19 0.16 0.19
0.73 0.70 0.68 0.66 0.62 0.64 0.67 0.70 0.70 0.69 0.72 0.71 0.71 0.72 0.70 0.69 0.67 0.67 0.66 0.66 0.64 0.60 0.61 0.59 0.55 0.52 0.56 0.57 0.56 0.59 0.58 0.59 0.59 0.59 0.57 0.54 0.55 0.56 0.55 0.58 0.59 0.59 0.55 0.51 0.47 0.42 0.38 0.30 0.24 0.20 0.16 0.19
0.73 0.70 0.68 0.66 0.64 0.64 0.68 0.69 0.71 0.71 0.72 0.72 0.73 0.73 0.72 0.71 0.68 0.66 0.66 0.65 0.65 0.61 0.61 0.61 0.58 0.51 0.55 0.59 0.58 0.58 0.59 0.58 0.58 0.58 0.55 0.55 0.56 0.54 0.54 0.55 0.59 0.54 0.51 0.48 0.47 0.41 0.36 0.30 0.26 0.20 0.18 0.20
0.72 0.69 0.66 0.65 0.66 0.65 0.68 0.69 0.71 0.73 0.73 0.73 0.75 0.75 0.74 0.72 0.70 0.67 0.64 0.64 0.63 0.63 0.60 0.60 0.59 0.54 0.56 0.59 0.59 0.58 0.57 0.58 0.56 0.57 0.57 0.56 0.57 0.54 0.54 0.54 0.53 0.49 0.46 0.43 0.43 0.40 0.35 0.30 0.25 0.19 0.21 0.19
0.72 0.71 0.65 0.64 0.66 0.66 0.67 0.69 0.71 0.74 0.75 0.76 0.74 0.76 0.75 0.73 0.70 0.69 0.67 0.65 0.63 0.62 0.60 0.59 0.57 0.56 0.57 0.58 0.60 0.59 0.58 0.59 0.58 0.57 0.57 0.56 0.55 0.52 0.52 0.53 0.51 0.47 0.45 0.44 0.42 0.39 0.36 0.29 0.21 0.21 0.20 0.18
0.71 0.74 0.72 0.67 0.64 0.65 0.65 0.68 0.70 0.72 0.73 0.75 0.75 0.75 0.76 0.73 0.71 0.70 0.69 0.66 0.64 0.62 0.59 0.58 0.57 0.56 0.55 0.56 0.59 0.60 0.59 0.59 0.59 0.58 0.58 0.57 0.55 0.53 0.52 0.51 0.48 0.46 0.44 0.44 0.42 0.38 0.36 0.30 0.22 0.22 0.19 0.17
0.70 0.71 0.75 0.72 0.69 0.69 0.65 0.65 0.70 0.71 0.72 0.72 0.75 0.75 0.75 0.72 0.71 0.70 0.69 0.67 0.64 0.61 0.59 0.58 0.56 0.56 0.55 0.56 0.58 0.60 0.60 0.59 0.59 0.59 0.58 0.58 0.56 0.53 0.53 0.50 0.47 0.45 0.43 0.43 0.40 0.37 0.34 0.27 0.21 0.20 0.19 0.18
0.69 0.69 0.69 0.74 0.73 0.70 0.68 0.65 0.68 0.70 0.72 0.72 0.74 0.75 0.74 0.72 0.70 0.71 0.71 0.69 0.67 0.61 0.60 0.59 0.56 0.55 0.55 0.54 0.56 0.59 0.59 0.59 0.60 0.61 0.59 0.57 0.57 0.55 0.54 0.49 0.45 0.41 0.40 0.40 0.37 0.34 0.31 0.25 0.21 0.20 0.18 0.19
0.62 0.68 0.67 0.69 0.75 0.73 0.72 0.70 0.68 0.68 0.70 0.72 0.73 0.75 0.75 0.73 0.71 0.71 0.71 0.71 0.68 0.61 0.60 0.59 0.58 0.57 0.54 0.53 0.54 0.55 0.55 0.57 0.58 0.60 0.59 0.57 0.56 0.55 0.54 0.47 0.44 0.40 0.38 0.37 0.35 0.32 0.28 0.22 0.21 0.19 0.19 0.19
0.61 0.63 0.65 0.67 0.69 0.74 0.76 0.75 0.73 0.68 0.70 0.70 0.73 0.75 0.75 0.75 0.73 0.72 0.70 0.70 0.67 0.62 0.59 0.58 0.57 0.57 0.55 0.52 0.53 0.54 0.52 0.53 0.55 0.56 0.57 0.57 0.55 0.54 0.54 0.50 0.45 0.40 0.37 0.35 0.33 0.29 0.24 0.21 0.21 0.20 0.20 0.19
0.58 0.58 0.63 0.66 0.68 0.70 0.74 0.78 0.76 0.75 0.71 0.71 0.73 0.75 0.76 0.74 0.73 0.72 0.70 0.69 0.67 0.62 0.59 0.56 0.57 0.56 0.55 0.51 0.51 0.55 0.53 0.51 0.52 0.53 0.53 0.55 0.55 0.55 0.53 0.50 0.47 0.41 0.36 0.32 0.28 0.24 0.22 0.21 0.21 0.20 0.20 0.20
0.56 0.58 0.58 0.63 0.67 0.68 0.72 0.76 0.77 0.78 0.77 0.75 0.74 0.77 0.77 0.76 0.74 0.72 0.71 0.69 0.66 0.63 0.58 0.54 0.56 0.56 0.54 0.52 0.50 0.53 0.53 0.51 0.51 0.52 0.52 0.53 0.53 0.52 0.51 0.48 0.46 0.42 0.38 0.34 0.29 0.25 0.24 0.22 0.21 0.21 0.21 0.20
0.54 0.56 0.58 0.59 0.62 0.66 0.68 0.69 0.72 0.79 0.81 0.78 0.77 0.78 0.80 0.76 0.73 0.72 0.69 0.67 0.65 0.64 0.58 0.56 0.57 0.56 0.54 0.53 0.51 0.53 0.51 0.52 0.52 0.52 0.52 0.52 0.51 0.49 0.48 0.47 0.44 0.41 0.38 0.35 0.32 0.28 0.26 0.24 0.22 0.21 0.21 0.21
0.52 0.55 0.55 0.57 0.60 0.63 0.67 0.67 0.70 0.72 0.74 0.78 0.78 0.77 0.79 0.79 0.74 0.72 0.72 0.69 0.68 0.62 0.59 0.58 0.58 0.56 0.55 0.53 0.53 0.53 0.48 0.49 0.50 0.51 0.50 0.50 0.48 0.46 0.45 0.43 0.42 0.40 0.37 0.35 0.32 0.30 0.26 0.25 0.22 0.23 0.22 0.21
0.51 0.52 0.54 0.56 0.57 0.60 0.63 0.66 0.68 0.69 0.71 0.72 0.75 0.76 0.77 0.78 0.76 0.73 0.70 0.68 0.66 0.64 0.61 0.59 0.58 0.56 0.55 0.53 0.53 0.51 0.47 0.48 0.49 0.48 0.48 0.48 0.47 0.45 0.44 0.42 0.41 0.40 0.36 0.34 0.31 0.29 0.26 0.24 0.22 0.22 0.22 0.22
0.49 0.51 0.53 0.55 0.57 0.59 0.60 0.64 0.65 0.67 0.69 0.69 0.73 0.72 0.76 0.76 0.75 0.70 0.65 0.65 0.64 0.63 0.62 0.60 0.59 0.57 0.56 0.53 0.52 0.51 0.48 0.48 0.48 0.47 0.48 0.49 0.47 0.46 0.44 0.42 0.40 0.38 0.36 0.33 0.31 0.29 0.27 0.25 0.23 0.22 0.21 0.20
0.47 0.48 0.51 0.53 0.54 0.56 0.60 0.62 0.63 0.64 0.65 0.67 0.69 0.72 0.73 0.74 0.74 0.73 0.66 0.64 0.63 0.62 0.62 0.60 0.59 0.58 0.56 0.55 0.53 0.52 0.50 0.48 0.46 0.45 0.45 0.46 0.46 0.44 0.43 0.40 0.37 0.36 0.34 0.31 0.31 0.30 0.29 0.26 0.24 0.23 0.22 0.21
0.45 0.47 0.48 0.50 0.53 0.56 0.57 0.58 0.60 0.62 0.64 0.65 0.66 0.68 0.69 0.71 0.73 0.72 0.69 0.66 0.64 0.63 0.61 0.60 0.59 0.57 0.55 0.56 0.54 0.52 0.51 0.47 0.46 0.43 0.43 0.43 0.43 0.41 0.39 0.37 0.36 0.34 0.33 0.31 0.31 0.30 0.29 0.28 0.27 0.26 0.24 0.23
0.38 0.44 0.47 0.49 0.50 0.52 0.54 0.57 0.59 0.61 0.63 0.64 0.65 0.66 0.65 0.67 0.70 0.71 0.66 0.67 0.64 0.63 0.62 0.59 0.58 0.57 0.56 0.55 0.55 0.52 0.51 0.48 0.45 0.43 0.41 0.41 0.40 0.40 0.38 0.36 0.35 0.33 0.33 0.31 0.30 0.30 0.31 0.29 0.29 0.28 0.27 0.26
0.34 0.35 0.40 0.46 0.49 0.51 0.53 0.53 0.56 0.59 0.61 0.63 0.64 0.65 0.65 0.65 0.66 0.67 0.68 0.66 0.65 0.62 0.61 0.59 0.57 0.57 0.56 0.55 0.53 0.51 0.50 0.48 0.44 0.42 0.41 0.40 0.40 0.38 0.37 0.36 0.34 0.33 0.33 0.31 0.30 0.30 0.31 0.30 0.30 0.29 0.29 0.28
0.34 0.34 0.34 0.36 0.43 0.48 0.51 0.52 0.52 0.54 0.57 0.60 0.61 0.63 0.64 0.65 0.66 0.66 0.66 0.67 0.67 0.63 0.61 0.59 0.57 0.56 0.56 0.55 0.52 0.50 0.49 0.47 0.44 0.42 0.40 0.39 0.39 0.38 0.37 0.36 0.34 0.34 0.33 0.32 0.31 0.31 0.30 0.31 0.30 0.29 0.30 0.30
0.35 0.35 0.36 0.34 0.33 0.39 0.46 0.50 0.52 0.53 0.54 0.55 0.57 0.59 0.61 0.64 0.65 0.65 0.66 0.66 0.67 0.65 0.63 0.61 0.59 0.58 0.57 0.56 0.52 0.49 0.47 0.45 0.45 0.43 0.41 0.39 0.39 0.38 0.37 0.35 0.34 0.33 0.34 0.33 0.33 0.32 0.31 0.31 0.30 0.30 0.29 0.29
0.34 0.34 0.34 0.36 0.35 0.34 0.34 0.42 0.49 0.53 0.53 0.54 0.54 0.55 0.57 0.59 0.61 0.63 0.65 0.66 0.67 0.66 0.64 0.62 0.61 0.60 0.59 0.57 0.53 0.50 0.47 0.45 0.43 0.42 0.40 0.39 0.38 0.38 0.37 0.36 0.35 0.34 0.34 0.34 0.34 0.32 0.31 0.31 0.30 0.29 0.29 0.28
0.31 0.33 0.33 0.33 0.33 0.34 0.35 0.34 0.36 0.45 0.51 0.54 0.54 0.54 0.55 0.55 0.57 0.59 0.61 0.63 0.65 0.66 0.65 0.63 0.62 0.61 0.60 0.59 0.55 0.51 0.48 0.45 0.44 0.41 0.39 0.39 0.38 0.37 0.37 0.36 0.35 0.34 0.34 0.33 0.33 0.32 0.31 0.31 0.30 0.30 0.29 0.28
0.25 0.26 0.28 0.32 0.33 0.32 0.34 0.35 0.37 0.35 0.41 0.49 0.54 0.56 0.56 0.56 0.55 0.56 0.57 0.59 0.61 0.62 0.64 0.64 0.63 0.61 0.61 0.60 0.57 0.53 0.50 0.49 0.47 0.44 0.42 0.40 0.39 0.37 0.36 0.35 0.35 0.35 0.35 0.33 0.31 0.31 0.30 0.29 0.29 0.29 0.28 0.27
0.25 0.25 0.25 0.26 0.29 0.33 0.34 0.34 0.35 0.35 0.36 0.39 0.46 0.51 0.55 0.57 0.57 0.57 0.57 0.58 0.59 0.59 0.60 0.61 0.62 0.62 0.60 0.59 0.57 0.54 0.52 0.51 0.49 0.47 0.44 0.42 0.39 0.38 0.36 0.35 0.36 0.35 0.34 0.30 0.28 0.28 0.28 0.28 0.29 0.29 0.28 0.27
0.25 0.26 0.27 0.27 0.28 0.30 0.33 0.35 0.36 0.37 0.39 0.40 0.42 0.44 0.49 0.54 0.57 0.58 0.58 0.58 0.58 0.58 0.59 0.59 0.60 0.60 0.61 0.60 0.58 0.54 0.52 0.51 0.49 0.47 0.45 0.42 0.39 0.38 0.37 0.36 0.36 0.35 0.33 0.30 0.30 0.29 0.28 0.26 0.25 0.25 0.26 0.26
0.25 0.25 0.26 0.28 0.29 0.30 0.31 0.32 0.35 0.35 0.38 0.41 0.42 0.43 0.45 0.49 0.53 0.56 0.57 0.58 0.59 0.58 0.58 0.59 0.58 0.59 0.59 0.59 0.59 0.56 0.51 0.49 0.48 0.47 0.45 0.44 0.41 0.40 0.37 0.36 0.35 0.35 0.32 0.30 0.29 0.25 0.24 0.24 0.24 0.22 0.22 0.24
0.25 0.25 0.25 0.26 0.26 0.28 0.29 0.30 0.32 0.33 0.33 0.36 0.43 0.44 0.44 0.45 0.48 0.51 0.56 0.57 0.58 0.58 0.58 0.57 0.58 0.58 0.58 0.58 0.58 0.57 0.52 0.50 0.49 0.48 0.48 0.46 0.44 0.41 0.39 0.36 0.36 0.36 0.34 0.31 0.30 0.30 0.27 0.24 0.22 0.21 0.22 0.23
0.26 0.25 0.25 0.24 0.23 0.23 0.24 0.24 0.26 0.28 0.30 0.32 0.35 0.37 0.39 0.42 0.44 0.47 0.50 0.54 0.56 0.58 0.58 0.58 0.58 0.58 0.59 0.58 0.57 0.56 0.53 0.52 0.51 0.49 0.48 0.47 0.45 0.43 0.42 0.40 0.37 0.36 0.35 0.33 0.31 0.31 0.31 0.30 0.28 0.26 0.25 0.23
0.24 0.24 0.24 0.23 0.24 0.24 0.24 0.23 0.25 0.28 0.31 0.32 0.35 0.38 0.39 0.40 0.42 0.43 0.46 0.48 0.52 0.55 0.57 0.59 0.59 0.58 0.58 0.59 0.58 0.58 0.55 0.52 0.51 0.51 0.49 0.48 0.46 0.44 0.43 0.42 0.38 0.36 0.35 0.35 0.33 0.31 0.29 0.29 0.30 0.30 0.26 0.20

ECMWFFLT2_prec_pwat_015.txt.gz
Precipitable_Water
0.98 0.95 0.92 0.90 0.88 0.85 0.84 0.84 0.82 0.82 0.78 0.78 0.78 0.79 0.80 0.83 0.86 0.83 0.79 0.80 0.79 0.77 0.76 0.70 0.68 0.67 0.66 0.65 0.65 0.65 0.69 0.73 0.76 0.76 0.76 0.75 0.74 0.72 0.74 0.77 0.79 0.73 0.66 0.61 0.53 0.41 0.35 0.22 0.14 0.15 0.18 0.17
0.95 0.94 0.93 0.91 0.89 0.86 0.85 0.83 0.82 0.80 0.80 0.76 0.77 0.79 0.79 0.83 0.84 0.83 0.81 0.80 0.81 0.79 0.77 0.74 0.70 0.68 0.65 0.64 0.64 0.66 0.67 0.70 0.77 0.77 0.77 0.76 0.73 0.73 0.72 0.73 0.76 0.74 0.68 0.64 0.56 0.49 0.39 0.28 0.20 0.14 0.17 0.16
0.94 0.94 0.93 0.91 0.90 0.89 0.83 0.81 0.81 0.79 0.79 0.77 0.75 0.77 0.81 0.83 0.82 0.81 0.80 0.78 0.78 0.78 0.77 0.76 0.71 0.69 0.65 0.64 0.65 0.65 0.66 0.68 0.73 0.77 0.77 0.77 0.74 0.74 0.70 0.70 0.70 0.71 0.68 0.66 0.59 0.52 0.46 0.40 0.33 0.22 0.16 0.15
0.88 0.90 0.88 0.86 0.84 0.84 0.84 0.81 0.79 0.79 0.78 0.76 0.75 0.75 0.80 0.82 0.82 0.81 0.79 0.77 0.74 0.73 0.76 0.74 0.72 0.69 0.68 0.66 0.65 0.63 0.66 0.67 0.71 0.75 0.76 0.75 0.73 0.73 0.70 0.70 0.69 0.67 0.67 0.65 0.60 0.55 0.50 0.44 0.36 0.26 0.19 0.15
0.87 0.95 0.93 0.93 0.91 0.86 0.83 0.81 0.78 0.77 0.77 0.76 0.76 0.75 0.79 0.82 0.82 0.81 0.79 0.78 0.76 0.74 0.74 0.74 0.73 0.68 0.69 0.70 0.66 0.64 0.66 0.67 0.71 0.75 0.77 0.74 0.72 0.71 0.70 0.71 0.70 0.67 0.67 0.66 0.62 0.57 0.51 0.43 0.33 0.29 0.23 0.16
0.63 0.67 0.76 0.90 0.94 0.96 0.95 0.91 0.82 0.78 0.73 0.74 0.74 0.74 0.77 0.81 0.82 0.81 0.79 0.78 0.78 0.76 0.74 0.74 0.73 0.69 0.67 0.69 0.69 0.67 0.67 0.68 0.69 0.73 0.74 0.74 0.72 0.71 0.70 0.71 0.67 0.67 0.66 0.67 0.64 0.59 0.55 0.44 0.37 0.32 0.26 0.18
0.61 0.63 0.66 0.70 0.81 0.94 0.98 0.97 0.98 0.88 0.80 0.78 0.73 0.72 0.74 0.78 0.80 0.80 0.79 0.79 0.78 0.76 0.76 0.74 0.73 0.70 0.68 0.67 0.68 0.67 0.69 0.67 0.69 0.71 0.72 0.72 0.71 0.69 0.69 0.67 0.64 0.64 0.63 0.63 0.62 0.58 0.53 0.46 0.41 0.33 0.25 0.20
0.61 0.62 0.64 0.66 0.69 0.76 0.83 0.92 0.95 0.98 0.97 0.82 0.78 0.73 0.73 0.75 0.78 0.79 0.79 0.78 0.78 0.77 0.75 0.74 0.74 0.72 0.69 0.68 0.67 0.68 0.70 0.68 0.67 0.70 0.71 0.70 0.69 0.66 0.64 0.62 0.59 0.59 0.58 0.55 0.54 0.52 0.50 0.47 0.43 0.31 0.21 0.20
0.57 0.61 0.63 0.65 0.67 0.67 0.71 0.78 0.86 0.91 0.94 0.94 0.85 0.77 0.74 0.73 0.74 0.77 0.78 0.78 0.78 0.76 0.74 0.72 0.72 0.72 0.71 0.69 0.66 0.66 0.69 0.70 0.67 0.68 0.69 0.70 0.67 0.63 0.59 0.57 0.56 0.54 0.51 0.51 0.48 0.47 0.47 0.46 0.41 0.28 0.19 0.19
0.51 0.54 0.55 0.60 0.64 0.67 0.68 0.68 0.70 0.77 0.86 0.92 0.94 0.91 0.83 0.79 0.74 0.73 0.75 0.77 0.78 0.78 0.75 0.73 0.71 0.70 0.70 0.70 0.67 0.67 0.66 0.70 0.68 0.67 0.68 0.66 0.65 0.61 0.58 0.56 0.54 0.53 0.50 0.48 0.47 0.47 0.47 0.44 0.38 0.27 0.20 0.20
0.37 0.44 0.51 0.54 0.57 0.59 0.63 0.68 0.68 0.69 0.74 0.84 0.90 0.92 0.97 0.88 0.80 0.75 0.73 0.72 0.74 0.77 0.78 0.74 0.72 0.71 0.71 0.68 0.67 0.66 0.65 0.67 0.69 0.67 0.67 0.65 0.63 0.62 0.59 0.56 0.54 0.52 0.51 0.49 0.47 0.46 0.45 0.43 0.40 0.35 0.24 0.21
0.29 0.31 0.35 0.41 0.49 0.54 0.58 0.60 0.64 0.66 0.68 0.71 0.80 0.87 0.94 0.95 0.94 0.84 0.76 0.73 0.73 0.74 0.77 0.75 0.74 0.73 0.71 0.70 0.68 0.67 0.66 0.65 0.69 0.68 0.67 0.65 0.64 0.62 0.60 0.56 0.54 0.53 0.51 0.50 0.48 0.46 0.44 0.41 0.39 0.36 0.25 0.22
0.27 0.28 0.29 0.32 0.33 0.38 0.47 0.54 0.59 0.63 0.66 0.67 0.69 0.75 0.85 0.92 0.92 0.92 0.88 0.81 0.77 0.76 0.75 0.76 0.76 0.74 0.71 0.71 0.70 0.67 0.64 0.66 0.67 0.68 0.66 0.65 0.63 0.62 0.60 0.58 0.55 0.54 0.52 0.51 0.49 0.47 0.44 0.41 0.38 0.32 0.23 0.22
0.26 0.27 0.25 0.26 0.30 0.33 0.35 0.38 0.48 0.56 0.62 0.66 0.68 0.69 0.73 0.81 0.86 0.91 0.91 0.87 0.91 0.86 0.82 0.80 0.78 0.76 0.72 0.71 0.71 0.70 0.66 0.64 0.66 0.67 0.66 0.66 0.64 0.62 0.60 0.57 0.56 0.54 0.52 0.52 0.51 0.49 0.46 0.43 0.39 0.30 0.26 0.24
0.25 0.26 0.26 0.25 0.25 0.27 0.31 0.33 0.35 0.39 0.47 0.56 0.64 0.69 0.70 0.71 0.76 0.83 0.87 0.92 0.93 0.93 0.90 0.88 0.84 0.79 0.77 0.74 0.72 0.71 0.70 0.70 0.64 0.66 0.66 0.65 0.64 0.63 0.61 0.59 0.58 0.56 0.53 0.52 0.51 0.50 0.47 0.44 0.40 0.35 0.34 0.29
0.25 0.25 0.26 0.26 0.26 0.24 0.25 0.29 0.31 0.33 0.36 0.39 0.47 0.59 0.67 0.71 0.71 0.73 0.76 0.83 0.88 0.91 0.91 0.91 0.90 0.87 0.84 0.79 0.78 0.76 0.73 0.72 0.70 0.64 0.66 0.67 0.66 0.66 0.64 0.62 0.59 0.58 0.55 0.52 0.51 0.50 0.49 0.47 0.43 0.40 0.38 0.33
0.25 0.25 0.25 0.26 0.26 0.26 0.25 0.24 0.25 0.28 0.30 0.33 0.38 0.41 0.50 0.62 0.69 0.71 0.71 0.73 0.79 0.84 0.89 0.92 0.91 0.88 0.86 0.86 0.85 0.83 0.80 0.77 0.73 0.67 0.64 0.67 0.67 0.66 0.64 0.62 0.59 0.58 0.56 0.53 0.52 0.51 0.50 0.48 0.45 0.42 0.39 0.36
0.23 0.24 0.24 0.25 0.26 0.25 0.25 0.26 0.24 0.23 0.27 0.30 0.31 0.36 0.39 0.43 0.55 0.65 0.71 0.71 0.71 0.76 0.80 0.85 0.89 0.88 0.87 0.87 0.87 0.86 0.85 0.81 0.78 0.70 0.64 0.63 0.65 0.63 0.62 0.60 0.59 0.57 0.54 0.53 0.53 0.51 0.50 0.48 0.47 0.43 0.39 0.37
0.22 0.24 0.24 0.24 0.26 0.26 0.25 0.26 0.27 0.25 0.24 0.28 0.30 0.31 0.33 0.36 0.41 0.48 0.60 0.68 0.70 0.70 0.75 0.78 0.80 0.86 0.88 0.89 0.88 0.86 0.86 0.83 0.82 0.77 0.69 0.63 0.61 0.62 0.61 0.60 0.59 0.56 0.55 0.53 0.51 0.51 0.50 0.47 0.46 0.43 0.40 0.38
0.22 0.24 0.24 0.24 0.27 0.27 0.26 0.25 0.26 0.27 0.26 0.25 0.29 0.31 0.31 0.32 0.35 0.39 0.44 0.54 0.64 0.68 0.70 0.75 0.79 0.81 0.86 0.87 0.87 0.84 0.85 0.83 0.81 0.79 0.76 0.70 0.62 0.59 0.58 0.58 0.57 0.57 0.55 0.54 0.52 0.51 0.49 0.47 0.45 0.42 0.40 0.39
0.22 0.24 0.24 0.25 0.26 0.27 0.26 0.26 0.26 0.27 0.27 0.27 0.26 0.29 0.30 0.32 0.33 0.35 0.38 0.43 0.49 0.58 0.65 0.69 0.72 0.79 0.83 0.85 0.86 0.84 0.83 0.81 0.80 0.79 0.76 0.73 0.68 0.61 0.57 0.56 0.55 0.55 0.55 0.54 0.53 0.52 0.50 0.47 0.45 0.41 0.40 0.41
0.21 0.22 0.24 0.25 0.27 0.27 0.27 0.26 0.26 0.26 0.25 0.25 0.27 0.26 0.27 0.30 0.32 0.33 0.35 0.38 0.42 0.46 0.53 0.62 0.67 0.70 0.77 0.81 0.82 0.81 0.81 0.79 0.79 0.77 0.76 0.73 0.71 0.67 0.61 0.57 0.54 0.53 0.53 0.54 0.53 0.52 0.51 0.49 0.46 0.44 0.42 0.42
0.19 0.20 0.21 0.23 0.25 0.27 0.27 0.27 0.26 0.25 0.24 0.23 0.24 0.27 0.27 0.27 0.30 0.32 0.33 0.35 0.38 0.40 0.44 0.49 0.57 0.64 0.69 0.76 0.77 0.77 0.78 0.77 0.77 0.75 0.74 0.71 0.70 0.70 0.67 0.61 0.57 0.55 0.53 0.53 0.52 0.52 0.51 0.50 0.48 0.46 0.44 0.42
0.18 0.17 0.18 0.19 0.22 0.23 0.25 0.26 0.26 0.26 0.25 0.24 0.23 0.23 0.26 0.27 0.27 0.29 0.32 0.33 0.35 0.37 0.39 0.43 0.48 0.54 0.61 0.67 0.72 0.73 0.72 0.73 0.73 0.72 0.71 0.70 0.68 0.66 0.66 0.65 0.62 0.59 0.55 0.53 0.51 0.49 0.49 0.49 0.48 0.46 0.44 0.42
0.17 0.16 0.17 0.19 0.20 0.21 0.22 0.23 0.24 0.25 0.25 0.25 0.23 0.23 0.22 0.22 0.25 0.27 0.29 0.31 0.33 0.34 0.37 0.39 0.42 0.48 0.54 0.59 0.64 0.68 0.69 0.72 0.72 0.72 0.71 0.70 0.68 0.64 0.62 0.62 0.63 0.61 0.58 0.53 0.49 0.48 0.47 0.46 0.46 0.44 0.43 0.41
0.16 0.17 0.19 0.19 0.20 0.22 0.23 0.23 0.23 0.23 0.25 0.25 0.26 0.24 0.23 0.22 0.22 0.22 0.24 0.27 0.30 0.32 0.33 0.36 0.38 0.40 0.46 0.53 0.57 0.61 0.66 0.69 0.70 0.70 0.68 0.66 0.63 0.64 0.62 0.60 0.62 0.61 0.58 0.52 0.47 0.43 0.41 0.42 0.43 0.43 0.42 0.39
0.17 0.19 0.21 0.23 0.24 0.24 0.24 0.25 0.24 0.23 0.24 0.25 0.26 0.26 0.25 0.24 0.23 0.23 0.24 0.29 0.34 0.35 0.35 0.34 0.35 0.38 0.41 0.45 0.51 0.54 0.57 0.62 0.65 0.66 0.67 0.65 0.61 0.59 0.60 0.60 0.60 0.59 0.60 0.51 0.50 0.47 0.43 0.38 0.37 0.38 0.39 0.38
0.21 0.23 0.24 0.25 0.26 0.26 0.25 0.23 0.23 0.23 0.23 0.24 0.26 0.26 0.27 0.26 0.24 0.24 0.24 0.28 0.32 0.34 0.37 0.37 0.35 0.36 0.39 0.41 0.46 0.49 0.52 0.56 0.59 0.63 0.63 0.64 0.62 0.59 0.54 0.54 0.53 0.56 0.57 0.56 0.49 0.41 0.39 0.37 0.36 0.33 0.33 0.34
0.23 0.24 0.25 0.26 0.25 0.24 0.23 0.23 0.22 0.22 0.22 0.23 0.24 0.25 0.26 0.27 0.27 0.25 0.25 0.25 0.28 0.32 0.34 0.35 0.36 0.35 0.37 0.40 0.42 0.45 0.48 0.50 0.54 0.58 0.61 0.62 0.61 0.59 0.55 0.52 0.51 0.52 0.53 0.53 0.53 0.48 0.40 0.35 0.33 0.31 0.32 0.34
0.24 0.24 0.24 0.24 0.24 0.22 0.21 0.20 0.20 0.20 0.20 0.22 0.22 0.23 0.25 0.27 0.29 0.27 0.26 0.25 0.25 0.27 0.30 0.31 0.33 0.35 0.36 0.37 0.40 0.43 0.44 0.47 0.51 0.54 0.57 0.60 0.60 0.59 0.58 0.54 0.51 0.48 0.50 0.51 0.50 0.50 0.48 0.44 0.37 0.34 0.35 0.35
0.25 0.25 0.26 0.25 0.24 0.24 0.22 0.21 0.21 0.23 0.23 0.24 0.24 0.25 0.25 0.26 0.28 0.29 0.28 0.26 0.25 0.25 0.25 0.27 0.29 0.32 0.35 0.38 0.38 0.41 0.43 0.44 0.47 0.50 0.54 0.57 0.59 0.58 0.58 0.56 0.50 0.48 0.46 0.47 0.47 0.47 0.47 0.45 0.43 0.40 0.35 0.33

ECMWFFLT2_prec_pwat_018.txt.gz
Precipitable_Water
0.90 1.01 1.06 1.08 1.06 1.05 0.99 0.97 0.98 0.97 0.95 0.92 0.91 0.89 0.89 0.93 0.93 0.92 0.91 0.90 0.88 0.86 0.83 0.83 0.82 0.78 0.76 0.75 0.74 0.74 0.74 0.78 0.81 0.88 0.92 0.90 0.86 0.84 0.87 0.87 0.86 0.82 0.74 0.72 0.65 0.53 0.35 0.21 0.17 0.17 0.18 0.26
0.81 0.86 0.97 1.05 1.05 1.04 1.03 0.95 0.93 0.91 0.94 0.95 0.91 0.90 0.91 0.93 0.93 0.91 0.91 0.88 0.88 0.87 0.85 0.83 0.82 0.80 0.76 0.75 0.74 0.75 0.74 0.76 0.78 0.83 0.89 0.90 0.85 0.83 0.85 0.84 0.84 0.83 0.76 0.76 0.69 0.56 0.35 0.21 0.16 0.17 0.16 0.23
0.73 0.78 0.84 0.91 1.03 1.08 1.09 0.99 0.90 0.88 0.87 0.89 0.89 0.88 0.88 0.89 0.92 0.91 0.90 0.90 0.87 0.87 0.84 0.86 0.85 0.80 0.77 0.76 0.75 0.73 0.73 0.74 0.76 0.80 0.84 0.85 0.85 0.82 0.81 0.83 0.86 0.84 0.78 0.77 0.72 0.59 0.44 0.30 0.23 0.22 0.17 0.16
0.66 0.71 0.74 0.79 0.86 0.94 1.00 1.04 1.01 0.95 0.88 0.82 0.80 0.82 0.82 0.84 0.86 0.90 0.90 0.92 0.91 0.85 0.83 0.85 0.85 0.83 0.77 0.76 0.76 0.74 0.71 0.72 0.75 0.77 0.84 0.84 0.84 0.82 0.78 0.78 0.80 0.83 0.79 0.79 0.72 0.64 0.50 0.36 0.32 0.30 0.27 0.19
0.62 0.64 0.68 0.71 0.74 0.78 0.84 0.89 0.94 0.94 0.92 0.90 0.87 0.77 0.74 0.78 0.83 0.86 0.89 0.91 0.93 0.91 0.83 0.82 0.84 0.82 0.78 0.75 0.75 0.73 0.72 0.70 0.74 0.74 0.82 0.87 0.86 0.85 0.81 0.78 0.77 0.80 0.78 0.79 0.73 0.64 0.54 0.44 0.37 0.33 0.30 0.26
0.56 0.60 0.63 0.66 0.68 0.72 0.74 0.77 0.82 0.88 0.98 1.03 0.98 0.91 0.81 0.73 0.76 0.79 0.84 0.88 0.91 0.92 0.88 0.82 0.80 0.79 0.78 0.76 0.75 0.73 0.72 0.72 0.71 0.72 0.76 0.84 0.87 0.86 0.83 0.80 0.77 0.78 0.78 0.78 0.73 0.64 0.58 0.49 0.42 0.38 0.34 0.29
0.47 0.50 0.55 0.60 0.65 0.68 0.70 0.73 0.75 0.77 0.81 0.90 1.01 1.00 0.94 0.88 0.79 0.77 0.79 0.84 0.88 0.88 0.87 0.85 0.80 0.77 0.78 0.76 0.73 0.73 0.74 0.75 0.70 0.72 0.72 0.80 0.85 0.87 0.85 0.81 0.75 0.74 0.74 0.74 0.71 0.65 0.58 0.53 0.48 0.42 0.37 0.32
0.37 0.41 0.45 0.48 0.53 0.59 0.64 0.67 0.71 0.73 0.75 0.79 0.84 0.93 1.02 1.00 0.93 0.84 0.80 0.81 0.83 0.84 0.86 0.88 0.83 0.78 0.77 0.76 0.74 0.71 0.72 0.75 0.71 0.70 0.72 0.78 0.84 0.86 0.85 0.78 0.73 0.72 0.71 0.70 0.65 0.62 0.58 0.53 0.49 0.44 0.39 0.35
0.30 0.33 0.34 0.38 0.43 0.46 0.50 0.57 0.62 0.66 0.71 0.73 0.76 0.81 0.85 0.94 0.98 0.94 0.85 0.81 0.79 0.81 0.82 0.82 0.86 0.84 0.78 0.75 0.74 0.73 0.68 0.71 0.71 0.70 0.72 0.74 0.81 0.83 0.81 0.74 0.70 0.69 0.67 0.65 0.61 0.57 0.54 0.52 0.50 0.47 0.42 0.37
0.28 0.28 0.28 0.30 0.32 0.36 0.38 0.44 0.48 0.53 0.61 0.67 0.71 0.74 0.78 0.83 0.86 0.93 0.94 0.88 0.81 0.79 0.80 0.79 0.79 0.79 0.78 0.76 0.73 0.73 0.70 0.68 0.69 0.69 0.71 0.71 0.75 0.78 0.78 0.73 0.70 0.69 0.66 0.62 0.59 0.56 0.54 0.52 0.49 0.46 0.45 0.39
0.26 0.27 0.28 0.28 0.28 0.28 0.29 0.32 0.34 0.40 0.46 0.53 0.61 0.67 0.72 0.74 0.78 0.83 0.88 0.93 0.90 0.86 0.83 0.78 0.77 0.77 0.78 0.75 0.74 0.73 0.71 0.69 0.67 0.67 0.69 0.71 0.72 0.76 0.76 0.73 0.70 0.68 0.66 0.63 0.59 0.56 0.54 0.52 0.49 0.46 0.44 0.41
0.24 0.25 0.26 0.26 0.27 0.26 0.26 0.27 0.27 0.29 0.33 0.39 0.44 0.53 0.63 0.69 0.70 0.75 0.79 0.85 0.91 0.94 0.91 0.87 0.86 0.80 0.78 0.75 0.75 0.76 0.74 0.70 0.69 0.67 0.67 0.70 0.71 0.72 0.74 0.72 0.69 0.68 0.65 0.62 0.60 0.56 0.53 0.51 0.48 0.45 0.42 0.39
0.24 0.23 0.24 0.24 0.23 0.23 0.25 0.24 0.25 0.26 0.27 0.28 0.33 0.39 0.47 0.57 0.63 0.67 0.71 0.76 0.81 0.90 0.92 0.92 0.91 0.86 0.82 0.78 0.75 0.76 0.75 0.73 0.69 0.69 0.68 0.67 0.69 0.70 0.71 0.72 0.69 0.67 0.65 0.62 0.60 0.57 0.53 0.51 0.48 0.44 0.41 0.39
0.23 0.22 0.22 0.23 0.24 0.24 0.25 0.24 0.24 0.24 0.24 0.26 0.27 0.29 0.35 0.43 0.52 0.59 0.64 0.68 0.76 0.81 0.85 0.91 0.91 0.87 0.86 0.82 0.83 0.78 0.74 0.74 0.72 0.69 0.69 0.68 0.66 0.68 0.69 0.69 0.69 0.67 0.64 0.62 0.60 0.57 0.55 0.53 0.50 0.45 0.42 0.40
0.23 0.23 0.22 0.22 0.24 0.25 0.24 0.25 0.26 0.25 0.24 0.24 0.25 0.27 0.29 0.33 0.39 0.46 0.57 0.62 0.67 0.72 0.78 0.83 0.89 0.91 0.90 0.85 0.85 0.85 0.81 0.79 0.75 0.72 0.69 0.68 0.66 0.66 0.67 0.67 0.68 0.67 0.64 0.61 0.59 0.58 0.56 0.55 0.53 0.49 0.46 0.42
0.21 0.21 0.21 0.21 0.23 0.25 0.25 0.27 0.27 0.25 0.25 0.25 0.25 0.26 0.28 0.30 0.32 0.37 0.42 0.52 0.59 0.64 0.68 0.75 0.80 0.85 0.89 0.88 0.89 0.89 0.86 0.85 0.83 0.77 0.72 0.71 0.69 0.68 0.67 0.68 0.68 0.67 0.65 0.62 0.60 0.59 0.57 0.57 0.55 0.53 0.50 0.46
0.20 0.20 0.19 0.19 0.21 0.24 0.25 0.26 0.27 0.26 0.26 0.25 0.25 0.25 0.26 0.27 0.30 0.33 0.36 0.39 0.46 0.56 0.62 0.67 0.72 0.78 0.83 0.87 0.89 0.89 0.88 0.88 0.86 0.82 0.77 0.74 0.71 0.69 0.69 0.66 0.65 0.66 0.66 0.63 0.62 0.60 0.58 0.58 0.56 0.55 0.52 0.48
0.19 0.19 0.19 0.20 0.21 0.23 0.24 0.25 0.25 0.26 0.27 0.25 0.24 0.25 0.24 0.25 0.27 0.30 0.33 0.36 0.39 0.43 0.50 0.58 0.64 0.70 0.77 0.84 0.87 0.89 0.89 0.87 0.87 0.82 0.83 0.78 0.74 0.69 0.67 0.65 0.63 0.62 0.61 0.62 0.62 0.61 0.60 0.59 0.57 0.57 0.53 0.50
0.20 0.20 0.20 0.20 0.22 0.24 0.24 0.24 0.24 0.25 0.25 0.25 0.25 0.25 0.24 0.23 0.23 0.25 0.30 0.34 0.36 0.37 0.41 0.45 0.53 0.61 0.69 0.78 0.84 0.86 0.87 0.87 0.87 0.85 0.83 0.80 0.79 0.75 0.72 0.70 0.67 0.62 0.60 0.60 0.60 0.60 0.60 0.58 0.58 0.57 0.55 0.53
0.21 0.20 0.20 0.21 0.22 0.23 0.24 0.24 0.24 0.24 0.25 0.25 0.25 0.24 0.23 0.22 0.22 0.23 0.26 0.30 0.33 0.34 0.36 0.39 0.43 0.49 0.59 0.67 0.74 0.81 0.84 0.85 0.83 0.83 0.83 0.83 0.82 0.78 0.75 0.74 0.70 0.67 0.61 0.60 0.59 0.60 0.60 0.59 0.58 0.57 0.56 0.54
0.19 0.19 0.18 0.19 0.20 0.21 0.22 0.22 0.23 0.24 0.24 0.24 0.23 0.23 0.22 0.23 0.22 0.22 0.23 0.26 0.29 0.31 0.32 0.34 0.37 0.42 0.48 0.57 0.65 0.72 0.78 0.82 0.83 0.82 0.80 0.81 0.80 0.80 0.78 0.76 0.73 0.69 0.65 0.61 0.60 0.60 0.59 0.59 0.58 0.56 0.56 0.55
0.20 0.20 0.20 0.19 0.19 0.19 0.20 0.21 0.22 0.22 0.23 0.23 0.24 0.23 0.22 0.22 0.23 0.23 0.23 0.23 0.25 0.27 0.29 0.31 0.33 0.37 0.41 0.46 0.54 0.62 0.70 0.75 0.80 0.82 0.82 0.78 0.80 0.79 0.77 0.74 0.74 0.69 0.67 0.63 0.61 0.60 0.59 0.58 0.58 0.56 0.56 0.56
0.20 0.20 0.20 0.20 0.19 0.19 0.20 0.21 0.22 0.22 0.22 0.23 0.25 0.25 0.24 0.23 0.22 0.22 0.23 0.23 0.23 0.24 0.25 0.28 0.30 0.34 0.37 0.41 0.44 0.50 0.60 0.68 0.73 0.76 0.79 0.79 0.78 0.80 0.79 0.77 0.76 0.74 0.71 0.67 0.64 0.61 0.60 0.59 0.57 0.56 0.56 0.56
0.18 0.18 0.18 0.18 0.20 0.20 0.20 0.21 0.22 0.23 0.24 0.24 0.24 0.24 0.25 0.24 0.23 0.22 0.22 0.23 0.24 0.24 0.24 0.25 0.29 0.33 0.36 0.38 0.39 0.41 0.46 0.57 0.66 0.70 0.72 0.75 0.75 0.75 0.77 0.79 0.78 0.77 0.74 0.72 0.68 0.63 0.60 0.59 0.57 0.56 0.54 0.53
0.16 0.15 0.15 0.17 0.20 0.21 0.22 0.22 0.23 0.23 0.24 0.24 0.24 0.24 0.24 0.25 0.24 0.23 0.23 0.23 0.23 0.24 0.24 0.25 0.26 0.30 0.33 0.36 0.38 0.38 0.40 0.46 0.56 0.65 0.69 0.70 0.74 0.73 0.72 0.73 0.76 0.76 0.76 0.70 0.65 0.65 0.60 0.56 0.55 0.55 0.53 0.51
0.17 0.16 0.16 0.18 0.21 0.22 0.22 0.22 0.22 0.22 0.23 0.24 0.25 0.25 0.25 0.24 0.25 0.25 0.23 0.23 0.23 0.24 0.24 0.24 0.25 0.27 0.31 0.34 0.36 0.37 0.38 0.41 0.47 0.55 0.62 0.66 0.66 0.69 0.69 0.69 0.73 0.73 0.71 0.64 0.61 0.58 0.56 0.55 0.54 0.52 0.52 0.51
0.17 0.18 0.19 0.20 0.20 0.21 0.21 0.23 0.24 0.24 0.24 0.24 0.24 0.25 0.25 0.25 0.25 0.25 0.24 0.24 0.24 0.24 0.25 0.24 0.24 0.25 0.28 0.32 0.33 0.34 0.35 0.37 0.40 0.46 0.53 0.60 0.61 0.62 0.65 0.67 0.71 0.69 0.70 0.62 0.63 0.63 0.56 0.51 0.49 0.48 0.48 0.49
0.19 0.20 0.20 0.21 0.21 0.21 0.21 0.20 0.21 0.23 0.24 0.25 0.25 0.24 0.25 0.25 0.25 0.25 0.25 0.24 0.25 0.26 0.25 0.25 0.24 0.24 0.25 0.28 0.30 0.32 0.33 0.35 0.36 0.40 0.46 0.52 0.58 0.60 0.57 0.60 0.62 0.68 0.67 0.66 0.61 0.51 0.52 0.51 0.50 0.45 0.44 0.43
0.20 0.20 0.19 0.19 0.19 0.20 0.20 0.20 0.20 0.20 0.21 0.22 0.23 0.24 0.24 0.25 0.25 0.25 0.25 0.25 0.25 0.25 0.26 0.25 0.25 0.25 0.25 0.25 0.28 0.30 0.32 0.33 0.35 0.38 0.42 0.46 0.51 0.55 0.56 0.55 0.58 0.62 0.64 0.63 0.64 0.58 0.52 0.46 0.44 0.44 0.43 0.44
0.21 0.20 0.19 0.18 0.18 0.17 0.18 0.18 0.19 0.19 0.20 0.21 0.21 0.21 0.23 0.24 0.25 0.25 0.25 0.25 0.25 0.25 0.26 0.27 0.26 0.26 0.25 0.25 0.25 0.27 0.29 0.32 0.34 0.36 0.39 0.43 0.46 0.50 0.55 0.55 0.55 0.56 0.61 0.62 0.62 0.61 0.59 0.56 0.48 0.45 0.45 0.44
0.21 0.20 0.19 0.19 0.19 0.20 0.20 0.20 0.20 0.22 0.22 0.22 0.22 0.23 0.23 0.24 0.25 0.25 0.25 0.26 0.26 0.26 0.26 0.27 0.27 0.27 0.26 0.25 0.25 0.25 0.26 0.27 0.30 0.33 0.37 0.41 0.44 0.47 0.51 0.53 0.51 0.52 0.55 0.58 0.59 0.60 0.60 0.57 0.55 0.52 0.48 0.44

ECMWFFLT2_prec_pwat_021.txt.gz
Precipitable_Water
0.81 0.82 0.85 0.89 0.93 0.98 1.03 1.07 1.10 1.08 1.10 1.12 1.06 1.02 0.98 0.97 0.98 0.99 1.00 1.01 1.04 1.06 1.04 1.02 0.97 0.94 0.89 0.82 0.83 0.84 0.82 0.83 0.83 0.89 0.97 1.01 1.00 0.97 1.00 0.96 0.92 0.90 0.86 0.78 0.75 0.69 0.52 0.27 0.16 0.27 0.34 0.43
0.70 0.73 0.74 0.77 0.82 0.88 0.93 0.98 1.01 1.04 1.07 1.09 1.06 0.99 1.00 1.01 0.98 0.97 0.97 0.98 0.99 1.00 1.02 1.01 0.98 0.96 0.93 0.90 0.83 0.82 0.83 0.81 0.81 0.86 0.95 0.98 0.99 0.97 0.98 0.98 0.93 0.90 0.87 0.82 0.77 0.72 0.63 0.41 0.16 0.16 0.27 0.37
0.56 0.62 0.63 0.67 0.74 0.81 0.85 0.91 0.95 0.96 0.97 0.98 0.99 0.99 0.95 0.96 0.98 0.99 0.97 0.97 0.98 1.01 0.99 0.97 0.97 0.95 0.90 0.91 0.89 0.83 0.82 0.81 0.81 0.82 0.91 0.96 0.98 1.01 1.00 0.98 0.96 0.90 0.87 0.83 0.79 0.74 0.69 0.53 0.22 0.15 0.17 0.25
0.50 0.52 0.54 0.57 0.62 0.67 0.76 0.82 0.83 0.89 0.92 0.92 0.92 0.88 0.86 0.88 0.92 0.92 0.93 0.94 0.93 0.93 0.94 0.92 0.94 0.92 0.89 0.87 0.90 0.87 0.82 0.79 0.81 0.82 0.86 0.94 0.97 1.01 0.99 0.98 0.99 0.92 0.87 0.85 0.81 0.76 0.68 0.56 0.36 0.15 0.15 0.20
0.45 0.46 0.49 0.52 0.54 0.56 0.60 0.67 0.74 0.76 0.77 0.86 0.87 0.82 0.80 0.79 0.81 0.84 0.88 0.88 0.90 0.91 0.91 0.92 0.94 0.95 0.88 0.85 0.86 0.89 0.85 0.80 0.78 0.80 0.81 0.89 0.93 0.98 1.00 0.98 0.98 0.93 0.88 0.84 0.80 0.76 0.67 0.57 0.52 0.31 0.19 0.20
0.41 0.42 0.44 0.46 0.48 0.50 0.52 0.53 0.58 0.63 0.68 0.72 0.76 0.79 0.78 0.78 0.78 0.78 0.81 0.85 0.86 0.89 0.90 0.91 0.92 0.95 0.97 0.90 0.84 0.82 0.84 0.83 0.79 0.75 0.77 0.84 0.90 0.94 0.98 0.97 0.97 0.93 0.88 0.83 0.77 0.74 0.67 0.59 0.53 0.49 0.34 0.28
0.36 0.38 0.39 0.41 0.44 0.45 0.47 0.48 0.50 0.52 0.54 0.58 0.61 0.67 0.76 0.81 0.85 0.84 0.81 0.81 0.85 0.87 0.89 0.90 0.92 0.93 0.94 0.99 0.92 0.83 0.80 0.81 0.79 0.74 0.73 0.78 0.86 0.91 0.95 0.98 0.96 0.94 0.90 0.85 0.76 0.70 0.66 0.59 0.56 0.54 0.45 0.37
0.31 0.33 0.35 0.36 0.40 0.43 0.43 0.44 0.45 0.46 0.48 0.49 0.51 0.55 0.63 0.73 0.77 0.83 0.84 0.82 0.81 0.84 0.85 0.86 0.90 0.93 0.91 0.92 0.92 0.88 0.82 0.78 0.77 0.75 0.75 0.77 0.83 0.85 0.89 0.94 0.96 0.93 0.89 0.84 0.75 0.69 0.62 0.58 0.57 0.55 0.50 0.45
0.28 0.28 0.29 0.31 0.34 0.37 0.39 0.42 0.41 0.42 0.43 0.44 0.45 0.46 0.51 0.57 0.66 0.73 0.79 0.83 0.83 0.81 0.82 0.85 0.86 0.92 0.93 0.91 0.87 0.89 0.85 0.80 0.75 0.74 0.72 0.74 0.76 0.82 0.85 0.88 0.92 0.92 0.87 0.82 0.74 0.68 0.62 0.57 0.56 0.55 0.52 0.47
0.26 0.26 0.26 0.25 0.28 0.31 0.34 0.37 0.38 0.40 0.42 0.42 0.43 0.44 0.44 0.45 0.51 0.58 0.68 0.73 0.78 0.80 0.81 0.82 0.83 0.85 0.89 0.93 0.89 0.89 0.83 0.82 0.79 0.74 0.72 0.72 0.70 0.75 0.81 0.84 0.87 0.89 0.86 0.79 0.74 0.71 0.64 0.58 0.55 0.54 0.54 0.52
0.23 0.25 0.26 0.25 0.26 0.26 0.28 0.31 0.32 0.34 0.37 0.39 0.40 0.41 0.42 0.42 0.43 0.46 0.51 0.58 0.66 0.75 0.79 0.79 0.79 0.80 0.85 0.85 0.87 0.90 0.86 0.81 0.80 0.77 0.73 0.71 0.71 0.71 0.75 0.80 0.84 0.85 0.83 0.79 0.74 0.70 0.66 0.61 0.57 0.55 0.53 0.52
0.21 0.22 0.24 0.24 0.24 0.24 0.26 0.29 0.29 0.30 0.31 0.33 0.35 0.36 0.38 0.40 0.40 0.41 0.43 0.47 0.51 0.58 0.70 0.76 0.79 0.79 0.82 0.84 0.86 0.88 0.88 0.83 0.78 0.76 0.75 0.73 0.72 0.70 0.71 0.74 0.79 0.82 0.80 0.78 0.74 0.70 0.66 0.62 0.59 0.57 0.54 0.51
0.20 0.21 0.22 0.22 0.21 0.22 0.24 0.25 0.27 0.28 0.29 0.28 0.29 0.31 0.33 0.34 0.35 0.37 0.38 0.40 0.43 0.47 0.52 0.62 0.74 0.79 0.81 0.83 0.85 0.90 0.88 0.86 0.82 0.77 0.74 0.73 0.72 0.72 0.70 0.71 0.73 0.77 0.77 0.76 0.73 0.68 0.65 0.62 0.60 0.57 0.54 0.52
0.20 0.21 0.21 0.21 0.20 0.21 0.22 0.23 0.25 0.27 0.26 0.26 0.27 0.27 0.27 0.28 0.30 0.32 0.34 0.36 0.39 0.40 0.42 0.47 0.54 0.67 0.76 0.79 0.83 0.87 0.88 0.90 0.86 0.83 0.78 0.75 0.73 0.72 0.71 0.69 0.71 0.73 0.73 0.73 0.72 0.69 0.65 0.62 0.60 0.58 0.55 0.52
0.21 0.21 0.21 0.21 0.20 0.20 0.20 0.22 0.24 0.25 0.25 0.24 0.24 0.24 0.25 0.25 0.25 0.26 0.28 0.31 0.34 0.36 0.38 0.40 0.44 0.49 0.61 0.72 0.78 0.83 0.86 0.91 0.90 0.87 0.83 0.81 0.75 0.71 0.72 0.70 0.71 0.71 0.70 0.70 0.70 0.69 0.66 0.63 0.61 0.58 0.56 0.54
0.21 0.21 0.22 0.21 0.21 0.21 0.21 0.21 0.22 0.23 0.24 0.23 0.23 0.24 0.24 0.23 0.24 0.24 0.24 0.25 0.27 0.31 0.34 0.36 0.38 0.42 0.47 0.55 0.68 0.77 0.81 0.85 0.90 0.90 0.88 0.83 0.81 0.79 0.74 0.73 0.72 0.71 0.70 0.68 0.68 0.69 0.67 0.66 0.62 0.59 0.57 0.54
0.22 0.22 0.22 0.22 0.22 0.22 0.22 0.22 0.23 0.23 0.22 0.22 0.22 0.23 0.23 0.23 0.23 0.22 0.22 0.24 0.24 0.25 0.27 0.30 0.33 0.36 0.40 0.46 0.51 0.64 0.73 0.76 0.83 0.87 0.88 0.86 0.84 0.82 0.80 0.75 0.73 0.72 0.70 0.68 0.67 0.68 0.68 0.66 0.63 0.62 0.58 0.55
0.23 0.23 0.23 0.23 0.23 0.23 0.23 0.23 0.23 0.23 0.23 0.23 0.23 0.23 0.22 0.21 0.21 0.22 0.23 0.22 0.24 0.25 0.25 0.25 0.28 0.31 0.33 0.39 0.44 0.49 0.60 0.67 0.73 0.79 0.83 0.84 0.84 0.82 0.79 0.76 0.75 0.73 0.68 0.67 0.68 0.67 0.68 0.67 0.65 0.63 0.59 0.56
0.25 0.25 0.25 0.24 0.24 0.24 0.25 0.25 0.25 0.24 0.24 0.24 0.24 0.23 0.22 0.21 0.21 0.21 0.21 0.22 0.23 0.23 0.24 0.23 0.24 0.25 0.29 0.32 0.38 0.44 0.48 0.56 0.64 0.72 0.78 0.81 0.80 0.81 0.79 0.78 0.77 0.74 0.72 0.68 0.65 0.65 0.66 0.66 0.66 0.64 0.61 0.59
0.26 0.26 0.25 0.25 0.25 0.24 0.24 0.25 0.26 0.25 0.25 0.24 0.24 0.23 0.23 0.22 0.22 0.22 0.22 0.21 0.22 0.23 0.23 0.23 0.23 0.24 0.26 0.29 0.32 0.38 0.44 0.48 0.53 0.62 0.69 0.77 0.80 0.77 0.77 0.77 0.76 0.77 0.76 0.74 0.69 0.66 0.65 0.65 0.65 0.63 0.62 0.60
0.24 0.24 0.23 0.23 0.23 0.22 0.22 0.23 0.24 0.25 0.25 0.24 0.23 0.23 0.22 0.23 0.23 0.23 0.23 0.22 0.22 0.22 0.23 0.23 0.23 0.23 0.24 0.26 0.29 0.31 0.37 0.43 0.48 0.52 0.61 0.68 0.76 0.77 0.74 0.76 0.75 0.76 0.76 0.76 0.76 0.70 0.65 0.64 0.63 0.62 0.62 0.62
0.22 0.22 0.22 0.22 0.21 0.22 0.22 0.22 0.23 0.24 0.24 0.24 0.24 0.23 0.22 0.22 0.22 0.23 0.25 0.24 0.23 0.22 0.22 0.23 0.23 0.24 0.25 0.26 0.26 0.28 0.31 0.37 0.43 0.48 0.53 0.58 0.67 0.73 0.72 0.71 0.73 0.72 0.75 0.75 0.76 0.75 0.70 0.65 0.64 0.62 0.62 0.63
0.23 0.23 0.22 0.22 0.22 0.22 0.22 0.22 0.22 0.21 0.21 0.22 0.22 0.22 0.23 0.23 0.23 0.23 0.24 0.24 0.24 0.23 0.22 0.22 0.23 0.23 0.25 0.26 0.25 0.25 0.26 0.30 0.36 0.41 0.47 0.51 0.58 0.66 0.71 0.72 0.73 0.73 0.75 0.74 0.74 0.75 0.75 0.73 0.68 0.65 0.63 0.63
0.23 0.22 0.21 0.21 0.21 0.21 0.21 0.22 0.21 0.21 0.20 0.19 0.19 0.20 0.21 0.23 0.25 0.25 0.25 0.25 0.24 0.24 0.23 0.22 0.22 0.22 0.24 0.25 0.26 0.25 0.23 0.24 0.29 0.35 0.39 0.44 0.50 0.57 0.63 0.69 0.73 0.74 0.73 0.74 0.73 0.72 0.74 0.75 0.73 0.69 0.65 0.62
0.22 0.21 0.21 0.21 0.21 0.19 0.20 0.19 0.20 0.19 0.18 0.18 0.18 0.19 0.20 0.21 0.24 0.25 0.25 0.26 0.26 0.25 0.25 0.24 0.23 0.22 0.22 0.25 0.26 0.25 0.24 0.24 0.25 0.31 0.36 0.40 0.45 0.49 0.54 0.60 0.68 0.71 0.73 0.69 0.67 0.70 0.69 0.70 0.73 0.72 0.68 0.64
0.21 0.21 0.21 0.21 0.20 0.19 0.19 0.18 0.18 0.18 0.18 0.19 0.19 0.19 0.20 0.21 0.22 0.24 0.24 0.25 0.26 0.26 0.26 0.24 0.23 0.22 0.22 0.23 0.24 0.25 0.26 0.26 0.26 0.27 0.31 0.36 0.38 0.44 0.47 0.53 0.62 0.67 0.68 0.62 0.61 0.60 0.59 0.61 0.66 0.69 0.68 0.65
0.20 0.21 0.21 0.21 0.20 0.19 0.18 0.19 0.19 0.19 0.20 0.20 0.20 0.20 0.21 0.22 0.23 0.24 0.24 0.25 0.26 0.25 0.25 0.25 0.24 0.23 0.23 0.23 0.24 0.24 0.25 0.25 0.25 0.25 0.27 0.31 0.34 0.37 0.44 0.46 0.56 0.62 0.66 0.58 0.62 0.64 0.60 0.55 0.54 0.61 0.64 0.65
0.19 0.20 0.21 0.21 0.20 0.19 0.19 0.17 0.19 0.19 0.19 0.19 0.19 0.20 0.21 0.23 0.23 0.23 0.24 0.25 0.25 0.25 0.25 0.25 0.24 0.24 0.24 0.24 0.25 0.25 0.24 0.24 0.24 0.24 0.25 0.28 0.32 0.35 0.35 0.41 0.45 0.56 0.62 0.62 0.59 0.51 0.53 0.54 0.56 0.50 0.54 0.58
0.19 0.20 0.20 0.20 0.20 0.20 0.18 0.18 0.17 0.17 0.17 0.18 0.19 0.20 0.21 0.21 0.21 0.23 0.24 0.24 0.25 0.24 0.24 0.25 0.25 0.25 0.25 0.25 0.26 0.27 0.26 0.25 0.25 0.25 0.25 0.27 0.29 0.31 0.32 0.35 0.42 0.48 0.55 0.60 0.64 0.58 0.53 0.50 0.49 0.51 0.53 0.58
0.22 0.22 0.22 0.22 0.20 0.18 0.17 0.16 0.15 0.15 0.15 0.16 0.17 0.19 0.21 0.21 0.22 0.23 0.25 0.26 0.26 0.26 0.26 0.26 0.26 0.26 0.26 0.26 0.26 0.27 0.27 0.27 0.27 0.26 0.26 0.25 0.26 0.29 0.33 0.33 0.37 0.42 0.50 0.55 0.60 0.62 0.61 0.58 0.51 0.51 0.55 0.56
0.19 0.20 0.23 0.23 0.23 0.21 0.20 0.18 0.17 0.17 0.17 0.17 0.19 0.21 0.21 0.21 0.23 0.24 0.24 0.24 0.26 0.27 0.27 0.27 0.27 0.27 0.26 0.26 0.27 0.27 0.28 0.27 0.27 0.27 0.26 0.26 0.26 0.28 0.31 0.34 0.32 0.37 0.43 0.49 0.53 0.58 0.60 0.60 0.60 0.60 0.55 0.51